PAKSAT-1R

Last updated on May 25, 2019, 3:11 a.m. UTC

1 37779U 11042A   19144.10812670  .00000147  00000-0  00000+0 0  9996
2 37779   0.0533 114.7403 0003969 301.9842 261.5394  1.00274058 28399
UTC
Height (km)
Latitude
Longitude
Inclination
Orbital Period
UTC large
Height (km)
Speed (km/s)
/
Latitude / Longitude
Inclination (degrees)
Orbital Period (minutes)
Azimuth
Elevation
Range (km)
Doppler Factor
iOS Compass Heading
iOS Angle

Next 30 passes for location: Hong Kong

Rise time Rise Azimuth (degrees) Set time Set Azimuth (degrees) Duration Max altitude (degrees)

No matching passes for this satellites